Tiempo atmosférico en la estación meteorológica de Candelaria, Santa Cruz de Tenerife (463 m.)



Fecha
DESCASC
Temp. máxima en grados centígrados (hora)
DESCASC
Temp. mínima en grados centígrados (hora)
DESCASC
Temp. media en grados centígrados
DESCASC
Racha de viento máxima en m/sg (hora)
DESCASC
Velocidad máxima media en intervalos de 10 minutos(hora)
DESCASC
Precipitaciones diarias en mm
DESCASC
Precipitaciones de 00:00 a 06:00 en mm
DESCASC
Precipitaciones de 06:00 a 12:00 en mm
DESCASC
Precipitaciones de 12:00 a 18:00 en mm
DESCASC
Precipitaciones de 18:00 a 24:00 en mm
DESCASC
16-09-2019 23.6 (15:20) 18.3 (00:00) 20.9 6.11 (14:20) 3.89 (05:30) 1 0 1 0 0
07-09-2019 24.1 (14:50) 16.3 (00:00) 20.2 6.94 (16:50) 4.44 (16:50) 0 0 0 0 0
21-09-2019 23.9 (13:50) 16.1 (00:00) 20 6.94 (13:40) 3.61 (13:40) 0 0 0 0 0
20-09-2019 23.6 (13:10) 17.5 (00:00) 20.6 6.39 (12:00) 4.44 (12:10) 0 0 0 0 0
19-09-2019 23.9 (14:50) 15.8 (00:00) 19.8 8.33 (15:40) 5.56 (15:40) 0 0 0 0 0
18-09-2019 23.4 (14:30) 15 (00:00) 19.2 7.78 (13:50) 4.72 (15:10) 0 0 0 0 0
17-09-2019 23.5 (14:10) 18.8 (00:00) 21.1 7.5 (15:10) 4.44 (15:10) 0 0 0 0 0
15-09-2019 24.3 (15:40) 16.1 (00:00) 20.2 7.22 (16:30) 4.72 (15:50) 0 0 0 0 0
14-09-2019 24.3 (13:50) 17.8 (00:00) 21 7.5 (14:00) 5 (14:00) 0 0 0 0 0
13-09-2019 26.7 (12:40) 19.1 (00:00) 22.9 9.44 (08:50) 6.67 (08:50) 0 0 0 0 0
12-09-2019 27.9 (17:20) 15.8 (00:00) 21.8 9.17 (15:20) 5.83 (14:40) 0 0 0 0 0
11-09-2019 26.9 (15:50) 17.2 (00:00) 22.1 10 (18:20) 6.94 (18:20) 0 0 0 0 0
10-09-2019 23.6 (16:40) 16.6 (07:40) 20.1 8.61 (11:40) 5.83 (11:30) 0 0 0 0 0
09-09-2019 23.4 (14:00) 15.6 (06:50) 19.5 8.06 (13:00) 5.28 (13:00) 0 0 0 0 0
08-09-2019 24.8 (14:10) 16.6 (00:00) 20.7 7.22 (16:10) 5 (15:10) 0 0 0 0 0
23-08-2019 34.4 (13:50) 20.2 (00:00) 27.3 6.11 (09:10) 4.72 (04:30) 0 0 0 0 0
06-09-2019 25.6 (14:00) 17 (00:00) 21.3 10 (15:20) 6.11 (15:20) 0 0 0 0 0
05-09-2019 25.4 (13:00) 16.6 (00:00) 21 10 (15:40) 6.94 (15:00) 0 0 0 0 0
04-09-2019 25.7 (13:40) 16.6 (00:00) 21.2 8.89 (18:00) 5.56 (18:20) 0 0 0 0 0
03-09-2019 22.7 (12:00) 15.9 (00:00) 19.3 6.67 (17:10) 3.89 (12:40) 0 0 0 0 0
02-09-2019 23 (14:10) 16.8 (00:00) 19.9 8.89 (13:10) 5.83 (12:20) 0 0 0 0 0
01-09-2019 24.4 (12:00) 18.3 (00:00) 21.3 9.17 (13:40) 6.39 (05:10) 0 0 0 0 0
31-08-2019 23.8 (11:30) 17.9 (00:00) 20.8 8.61 (14:50) 5.56 (14:00) 0 0 0 0 0
30-08-2019 26.1 (15:40) 17 (00:00) 21.6 7.22 (08:10) 4.72 (05:40) 0 0 0 0 0
29-08-2019 26.4 (10:50) 16.6 (00:00) 21.5 6.94 (16:40) 4.72 (00:10) 0 0 0 0 0
28-08-2019 23.3 (15:40) 16.7 (00:00) 20 7.78 (12:10) 5.56 (12:40) 0 0 0 0 0
27-08-2019 23.1 (13:00) 17.2 (00:00) 20.2 8.33 (15:40) 5.83 (13:20) 0 0 0 0 0
26-08-2019 27.4 (05:40) 19.3 (00:00) 23.3 8.33 (14:00) 5.56 (12:40) 0 0 0 0 0
25-08-2019 32.5 (11:50) 21.2 (00:00) 26.9 7.78 (04:20) 5 (04:00) 0 0 0 0 0
24-08-2019 33.2 (10:00) 24.3 (00:00) 28.8 8.89 (05:40) 4.72 (05:30) 0 0 0 0 0

Gráficas

Temp. máximas Temp. mínimas Temp. medias Precipitaciones Rachas de viento máximas Velocidades máximas media en intervalos de 10 minutos

Datos horarios

Fecha y hora oficial Temperatura (ºC) Velocidad del viento (km/h) Dirección del viento Racha (km/h) Dirección de racha Precipitación (mm) Presión (hPa) Tendencia (hPa) Humedad (%)
2019-09-21 23:00:00 19.7 4 Sudeste 7 Sudeste 0 -- -- 91
2019-09-21 22:00:00 20 5 Sudeste 9 Sur 0 -- -- 90
2019-09-21 21:00:00 20.1 4 Sur 6 Sur 0 -- -- 89
2019-09-21 20:00:00 20.3 3 Sudoeste 9 Sudeste 0 -- -- 87
2019-09-21 19:00:00 21.1 5 Sur 15 Sudeste 0 -- -- 84
2019-09-21 18:00:00 21.8 10 Sudeste 15 Sudeste 0 -- -- 82
2019-09-21 17:00:00 22.5 7 Sudeste 15 Sur 0 -- -- 76
2019-09-21 16:00:00 22.5 10 Sudeste 21 Sudeste 0 -- -- 76
2019-09-21 15:00:00 23.5 8 Sudoeste 22 Sur 0 -- -- 71
2019-09-21 14:00:00 23.9 12 Sur 25 Sur 0 -- -- 67
2019-09-21 13:00:00 23.4 9 Sudoeste 20 Sur 0 -- -- 67
2019-09-21 12:00:00 23.8 9 Sudoeste 18 Sur 0 -- -- 66
2019-09-21 11:00:00 22.7 8 Sudoeste 14 Sudoeste 0 -- -- 69
2019-09-21 10:00:00 22 7 Sur 12 Sur 0 -- -- 72
2019-09-21 09:00:00 20.3 2 Sur 10 Nordeste 0 -- -- 75
2019-09-21 08:00:00 16.1 6 Nordeste 14 Nordeste 0 -- -- 81
2019-09-21 07:00:00 16.7 7 Este 12 Nordeste 0 -- -- 84
2019-09-21 06:00:00 17 11 Nordeste 14 Nordeste 0 -- -- 87
2019-09-21 05:00:00 16.7 7 Nordeste 12 Nordeste 0 -- -- 83
2019-09-21 04:00:00 16.4 7 Nordeste 12 Norte 0 -- -- 86
2019-09-21 03:00:00 17.1 9 Norte 13 Norte 0 -- -- 86
2019-09-21 02:00:00 17.6 8 Norte 10 Noroeste 0 -- -- 87
2019-09-21 01:00:00 17.8 8 Norte 12 Norte 0 -- -- 85
2019-09-21 00:00:00 18.4 5 Norte 9 Norte 0 -- -- 87
2019-09-20 23:00:00 18.9 5 Noroeste 11 Nordeste 0 -- -- 87
2019-09-20 22:00:00 19.3 5 Noroeste 10 Oeste 0 -- -- 85
2019-09-20 21:00:00 19.5 4 Norte 17 Noroeste 0 -- -- 83
2019-09-20 20:00:00 20.2 9 Noroeste 15 Oeste 0 -- -- 83
2019-09-20 19:00:00 21.1 8 Oeste 15 Sudoeste 0 -- -- 77
2019-09-20 18:00:00 21.4 9 Sur 17 Sur 0 -- -- 79
2019-09-20 17:00:00 21.4 6 Sur 14 Sudoeste 0 -- -- 77
2019-09-20 16:00:00 21.3 10 Sur 18 Sur 0 -- -- 77
2019-09-20 15:00:00 21.8 10 Sur 22 Sur 0 -- -- 75
2019-09-20 14:00:00 22.6 13 Sur 23 Sur 0 -- -- 73
2019-09-20 13:00:00 23.5 14 Sur 23 Sur 0 -- -- 67
2019-09-20 12:00:00 22.4 15 Sur 23 Sudoeste 0 -- -- 71
2019-09-20 11:00:00 22.4 10 Sudoeste 21 Oeste 0 -- -- 70
2019-09-20 10:00:00 21.3 12 Oeste 19 Oeste 0 -- -- 72
2019-09-20 09:00:00 20.9 8 Oeste 14 Noroeste 0 -- -- 68
2019-09-20 08:00:00 18.2 12 Noroeste 15 Norte 0 -- -- 61
2019-09-20 07:00:00 17.5 5 Nordeste 16 Noroeste 0 -- -- 45
2019-09-20 06:00:00 18 9 Noroeste 14 Noroeste 0 -- -- 56
2019-09-20 05:00:00 18 8 Norte 13 Noroeste 0 -- -- 49
2019-09-20 04:00:00 17.6 6 Nordeste 10 Nordeste 0 -- -- 51
2019-09-20 03:00:00 18.6 6 Nordeste 13 Nordeste 0 -- -- 39
2019-09-20 02:00:00 18.8 6 Nordeste 16 Norte 0 -- -- 40
2019-09-20 01:00:00 18.7 12 Norte 19 Norte 0 -- -- 62
2019-09-20 00:00:00 18.4 10 Norte 15 Noroeste 0 -- -- 71
2019-09-19 23:00:00 18.2 7 Norte 12 Norte 0 -- -- 77
2019-09-19 22:00:00 19 8 Norte 14 Norte 0 -- -- 76
2019-09-19 21:00:00 19.3 9 Noroeste 17 Noroeste 0 -- -- 84
2019-09-19 20:00:00 19.8 10 Noroeste 16 Noroeste 0 -- -- 83
2019-09-19 19:00:00 20.2 5 Sur 18 Sur 0 -- -- 82
2019-09-19 18:00:00 20.9 10 Sur 24 Sur 0 -- -- 77
2019-09-19 17:00:00 21 15 Sur 28 Sur 0 -- -- 79
2019-09-19 16:00:00 22.8 17 Sur 30 Sur 0 -- -- 72
2019-09-19 15:00:00 23.6 18 Sur 27 Sur 0 -- -- 66
2019-09-19 14:00:00 22.9 14 Sur 27 Sur 0 -- -- 67
2019-09-19 13:00:00 23 19 Sudeste 28 Sur 0 -- -- 66
2019-09-19 12:00:00 22.9 18 Sur 28 Sur 0 -- -- 69
2019-09-19 11:00:00 22.1 10 Sur 21 Sur 0 -- -- 68
2019-09-19 10:00:00 21.4 10 Oeste 17 Oeste 0 -- -- 65
2019-09-19 09:00:00 19.9 8 Oeste 13 Oeste 0 -- -- 66
2019-09-19 08:00:00 17.3 9 Norte 18 Norte 0 -- -- 70
2019-09-19 07:00:00 17.4 12 Norte 17 Noroeste 0 -- -- 76
2019-09-19 06:00:00 17.7 11 Noroeste 15 Norte 0 -- -- 64
2019-09-19 05:00:00 16.6 10 Norte 14 Norte 0 -- -- 65
2019-09-19 04:00:00 16.9 10 Norte 14 Norte 0 -- -- 72
2019-09-19 03:00:00 16.8 6 Noroeste 9 Norte 0 -- -- 71
2019-09-19 02:00:00 17.3 3 Nordeste 10 Nordeste 0 -- -- 77
2019-09-19 01:00:00 17.9 5 Norte 8 Nordeste 0 -- -- 83
2019-09-19 00:00:00 18.8 2 Sudoeste 10 Sur 0 -- -- 86
2019-09-18 23:00:00 18.8 6 Sudeste 14 Sur 0 -- -- 87
2019-09-18 22:00:00 19.4 7 Sur 17 Sudeste 0 -- -- 84
2019-09-18 21:00:00 19.2 13 Sudeste 21 Sudeste 0 -- -- 86
2019-09-18 20:00:00 19.5 11 Sudeste 17 Sur 0 -- -- 85
2019-09-18 19:00:00 20.2 6 Sur 19 Sur 0 -- -- 79
2019-09-18 18:00:00 21.3 10 Sur 23 Sudeste 0 -- -- 74
2019-09-18 17:00:00 22 15 Sudeste 25 Sur 0 -- -- 71
2019-09-18 16:00:00 22.5 16 Sur 27 Sur 0 -- -- 70
2019-09-18 15:00:00 23 15 Sur 26 Sur 0 -- -- 65
2019-09-18 14:00:00 23.1 14 Sur 28 Sudeste 0 -- -- 66
2019-09-18 13:00:00 22.8 16 Sudeste 26 Sur 0 -- -- 65
2019-09-18 12:00:00 22.6 17 Sudeste 25 Sudeste 0 -- -- 66
2019-09-18 11:00:00 21.8 15 Sur 26 Sur 0 -- -- 69
2019-09-18 10:00:00 21.1 11 Sudeste 17 Sudeste 0 -- -- 69
2019-09-18 09:00:00 19.2 5 Sur 9 Sudeste 0 -- -- 76
2019-09-18 08:00:00 15.7 2 Noroeste 7 Norte 0 -- -- 84
2019-09-18 07:00:00 15.9 6 Norte 10 Norte 0 -- -- 69
2019-09-18 06:00:00 16.5 6 Noroeste 9 Norte 0 -- -- 74
2019-09-18 05:00:00 16.6 3 Noroeste 10 Noroeste 0 -- -- 79
2019-09-18 04:00:00 17.6 10 Noroeste 12 Noroeste 0 -- -- 87
2019-09-18 03:00:00 18 5 Noroeste 8 Noroeste 0 -- -- 88
2019-09-18 02:00:00 18.5 0 Calma 9 Sur 0 -- -- 88
2019-09-18 01:00:00 18.8 4 Sur 10 Sur 0 -- -- 88
2019-09-18 00:00:00 18.8 5 Sudeste 9 Sudeste 0 -- -- 89
2019-09-17 23:00:00 19.1 3 Sudeste 12 Sur 0 -- -- 86
2019-09-17 22:00:00 19.1 3 Sudeste 19 Sudeste 0 -- -- 89
2019-09-17 21:00:00 19.1 12 Sudeste 18 Sudeste 0 -- -- 88
2019-09-17 20:00:00 19.5 13 Sudeste 19 Sudeste 0 -- -- 86
2019-09-15 17:00:00 -- -- -- -- -- -- -- -- --
2019-09-15 16:00:00 -- -- -- -- -- -- -- -- --
2019-09-15 15:00:00 -- -- -- -- -- -- -- -- --
2019-09-15 14:00:00 -- -- -- -- -- -- -- -- --
2019-09-15 13:00:00 23.3 11 Sur 21 Sur 0 -- -- 70
2019-09-15 12:00:00 23.4 13 Sur 21 Sur 0 -- -- 64
2019-09-15 11:00:00 23.2 8 Sudeste 14 Sudeste 0 -- -- 69
2019-09-15 10:00:00 22.2 9 Sur 14 Sur 0 -- -- 66
2019-09-15 09:00:00 21 4 Oeste 6 Sudoeste 0 -- -- 65
2019-09-15 08:00:00 16.2 3 Nordeste 8 Norte 0 -- -- 60
2019-09-15 07:00:00 16.6 5 Este 15 Norte 0 -- -- 63
2019-09-15 06:00:00 16.3 3 Nordeste 8 Norte 0 -- -- 79
2019-09-15 05:00:00 17.7 4 Este 15 Nordeste 0 -- -- 84
2019-09-15 04:00:00 19.2 11 Este 19 Nordeste 0 -- -- 41
2019-09-15 03:00:00 17.7 10 Norte 12 Nordeste 0 -- -- 80
2019-09-15 02:00:00 17.7 2 Norte 7 Nordeste 0 -- -- 87
2019-09-15 01:00:00 17 0 Calma 10 Nordeste 0 -- -- 72
2019-09-15 00:00:00 18.3 0 Calma 8 Este 0 -- -- 73
2019-09-14 23:00:00 18.6 3 Sudeste 5 Sudeste 0 -- -- 81
2019-09-14 22:00:00 19.3 3 Noroeste 8 Norte 0 -- -- 68
2019-09-14 21:00:00 19.6 6 Noroeste 8 Noroeste 0 -- -- 84
2019-09-14 20:00:00 19.8 2 Sudeste 11 Sur 0 -- -- 83
2019-09-14 19:00:00 20.9 8 Sur 18 Sur 0 -- -- 79
2019-09-14 18:00:00 22.1 9 Sudeste 19 Sur 0 -- -- 74
2019-09-14 17:00:00 22.9 11 Sur 23 Sur 0 -- -- 69
2019-09-14 16:00:00 23.8 13 Sur 23 Sur 0 -- -- 57
2019-09-14 15:00:00 23.9 17 Sur 25 Sur 0 -- -- 60
2019-09-14 14:00:00 24.2 18 Sur 27 Sur 0 -- -- 56
2019-09-14 13:00:00 23.6 15 Sur 26 Sur 0 -- -- 64
2019-09-14 12:00:00 22.7 15 Sur 27 Sur 0 -- -- 66
2019-09-14 11:00:00 22.8 11 Sur 20 Sur 0 -- -- 65
2019-09-14 10:00:00 22 8 Sur 13 Sudoeste 0 -- -- 63
2019-09-14 09:00:00 21 8 Sur 12 Sur 0 -- -- 59
2019-09-14 08:00:00 18.3 10 Nordeste 19 Este 0 -- -- 39
2019-09-14 07:00:00 20.2 11 Este 21 Este 0 -- -- 37
2019-09-14 06:00:00 20.4 11 Este 19 Este 0 -- -- 40
2019-09-14 05:00:00 -- -- -- -- -- -- -- -- --
2019-09-14 04:00:00 -- -- -- -- -- -- -- -- --
2019-09-14 03:00:00 -- -- -- -- -- -- -- -- --
2019-09-14 02:00:00 -- -- -- -- -- -- -- -- --
2019-09-14 01:00:00 17.8 8 Nordeste 15 Noroeste 0 -- -- 42
2019-09-14 00:00:00 19.1 12 Noroeste 23 Noroeste 0 -- -- 63
2019-09-13 23:00:00 19.4 14 Noroeste 22 Noroeste 0 -- -- 66
2019-09-13 22:00:00 19.8 15 Noroeste 27 Noroeste 0 -- -- 62
2019-09-13 21:00:00 20.9 14 Noroeste 26 Noroeste 0 -- -- 52
2019-09-13 20:00:00 21.8 14 Noroeste 28 Noroeste 0 -- -- 54
2019-09-13 19:00:00 24.2 17 Noroeste 29 Noroeste 0 -- -- 48
2019-09-13 18:00:00 25.4 17 Noroeste 30 Noroeste 0 -- -- 47
2019-09-13 17:00:00 25.1 22 Noroeste 30 Noroeste 0 -- -- 52
2019-09-13 16:00:00 25.6 19 Noroeste 32 Oeste 0 -- -- 52
2019-09-13 15:00:00 25.1 16 Oeste 32 Oeste 0 -- -- 56
2019-09-13 14:00:00 25.8 13 Oeste 30 Sur 0 -- -- 54
2019-09-13 13:00:00 26.6 17 Oeste 33 Oeste 0 -- -- 45
2019-09-13 12:00:00 26.5 16 Oeste 27 Oeste 0 -- -- 42
2019-09-13 11:00:00 25.2 14 Noroeste 26 Oeste 0 -- -- 45
2019-09-13 10:00:00 23.8 18 Noroeste 31 Noroeste 0 -- -- 48
2019-09-13 09:00:00 22.2 23 Noroeste 34 Noroeste 0 -- -- 45
2019-09-13 08:00:00 21.8 10 Este 26 Norte 0 -- -- 39
2019-09-13 07:00:00 21.8 4 Oeste 20 Noroeste 0 -- -- 37
2019-09-13 06:00:00 22.2 7 Noroeste 20 Norte 0 -- -- 34
2019-09-13 05:00:00 23.1 8 Oeste 34 Norte 0 -- -- 33
2019-09-13 04:00:00 22.4 7 Nordeste 18 Norte 0 -- -- 34
2019-09-13 03:00:00 23.5 13 Este 27 Nordeste 0 -- -- 33
2019-09-13 02:00:00 23.1 10 Este 24 Nordeste 0 -- -- 34
2019-09-13 01:00:00 22.7 3 Este 21 Sudeste 0 -- -- 34
2019-09-13 00:00:00 22.6 9 Este 28 Este 0 -- -- 32
2019-09-12 23:00:00 22.9 18 Sudeste 31 Sudeste 0 -- -- 34
2019-09-12 22:00:00 21.4 9 Nordeste 19 Noroeste 0 -- -- 29
2019-09-12 21:00:00 22.6 13 Noroeste 18 Noroeste 0 -- -- 30
2019-09-12 20:00:00 23.7 14 Noroeste 21 Noroeste 0 -- -- 27
2019-09-12 19:00:00 26.3 6 Sudeste 32 Sur 0 -- -- 19
2019-09-12 18:00:00 27.8 14 Sur 27 Sur 0 -- -- 20
2019-09-12 17:00:00 27.8 14 Noroeste 30 Noroeste 0 -- -- 31
2019-09-12 16:00:00 27.3 19 Noroeste 33 Noroeste 0 -- -- 36
2019-09-12 15:00:00 27.2 18 Noroeste 31 Oeste 0 -- -- 36
2019-09-12 14:00:00 27.4 17 Noroeste 30 Noroeste 0 -- -- 38
2019-09-12 13:00:00 26.3 15 Noroeste 27 Noroeste 0 -- -- 42
2019-09-12 12:00:00 25.4 15 Oeste 23 Oeste 0 -- -- 46
2019-09-12 11:00:00 24.1 16 Oeste 23 Oeste 0 -- -- 48
2019-09-12 10:00:00 23 12 Noroeste 19 Oeste 0 -- -- 45
2019-09-12 09:00:00 21 8 Noroeste 16 Noroeste 0 -- -- 46
2019-09-12 08:00:00 17.8 10 Noroeste 17 Norte 0 -- -- 54
2019-09-12 07:00:00 16.9 12 Norte 15 Norte 0 -- -- 60
2019-09-12 06:00:00 16.3 9 Norte 15 Nordeste 0 -- -- 72
2019-09-12 05:00:00 16.9 8 Este 13 Este 0 -- -- 83
2019-09-12 04:00:00 17.2 3 Este 14 Norte 0 -- -- 81
2019-09-12 03:00:00 17.1 8 Norte 16 Noroeste 0 -- -- 80
2019-09-12 02:00:00 18 5 Sudeste 15 Sudeste 0 -- -- 79
2019-09-12 01:00:00 18 4 Este 10 Nordeste 0 -- -- 78
2019-09-12 00:00:00 18.4 6 Norte 21 Noroeste 0 -- -- 75
2019-09-11 23:00:00 18.6 9 Noroeste 15 Noroeste 0 -- -- 74
2019-09-11 22:00:00 19 6 Noroeste 24 Noroeste 0 -- -- 73
2019-09-11 21:00:00 19.8 15 Noroeste 21 Noroeste 0 -- -- 71
2019-09-11 20:00:00 21 13 Noroeste 26 Noroeste 0 -- -- 66
2019-09-11 19:00:00 23.4 14 Noroeste 36 Oeste 0 -- -- 58
2019-09-11 18:00:00 24.9 20 Noroeste 34 Oeste 0 -- -- 56
2019-09-11 17:00:00 26.5 18 Oeste 31 Noroeste 0 -- -- 51
2019-09-11 16:00:00 26.7 13 Oeste 27 Oeste 0 -- -- 46
2019-09-11 15:00:00 26.4 16 Oeste 31 Noroeste 0 -- -- 45
2019-09-11 14:00:00 25.7 15 Sur 27 Sur 0 -- -- 49
2019-09-11 13:00:00 25.3 17 Noroeste 30 Noroeste 0 -- -- 51
2019-09-11 12:00:00 24.2 16 Oeste 27 Noroeste 0 -- -- 51
2019-09-11 11:00:00 22.8 14 Noroeste 28 Noroeste 0 -- -- 57
2019-09-11 10:00:00 21.6 14 Noroeste 32 Noroeste 0 -- -- 61
2019-09-11 09:00:00 19.3 15 Noroeste 23 Noroeste 0 -- -- 69
2019-09-11 08:00:00 17.3 12 Noroeste 23 Noroeste 0 -- -- 77
2019-09-11 07:00:00 17.4 13 Norte 20 Noroeste 0 -- -- 76
2019-09-11 06:00:00 17.4 8 Norte 16 Noroeste 0 -- -- 75
2019-09-11 05:00:00 17.5 13 Noroeste 19 Noroeste 0 -- -- 78
2019-09-11 04:00:00 18.1 9 Noroeste 26 Noroeste 0 -- -- 74
2019-09-11 03:00:00 18 16 Noroeste 22 Noroeste 0 -- -- 79
2019-09-11 02:00:00 18.5 15 Noroeste 27 Noroeste 0 -- -- 81
2019-09-11 01:00:00 18.4 9 Norte 18 Norte 0 -- -- 82
2019-09-11 00:00:00 18.8 12 Norte 24 Noroeste 0 -- -- 81
2019-09-10 23:00:00 19 13 Norte 22 Noroeste 0 -- -- 80
2019-09-10 22:00:00 19.1 9 Norte 22 Noroeste 0 -- -- 80
2019-09-10 21:00:00 19.5 12 Noroeste 21 Noroeste 0 -- -- 83
2019-09-10 20:00:00 20.3 13 Noroeste 20 Noroeste 0 -- -- 81
2019-09-10 19:00:00 20.8 9 Oeste 22 Sur 0 -- -- 80
2019-09-10 18:00:00 21.2 13 Sur 27 Sudeste 0 -- -- 81
2019-09-10 17:00:00 22.9 14 Sur 25 Sur 0 -- -- 72
2019-09-10 16:00:00 23.2 15 Sur 28 Sudeste 0 -- -- 70
2019-09-10 15:00:00 22.5 15 Sudeste 27 Sur 0 -- -- 72
2019-09-10 14:00:00 21.9 14 Sudeste 27 Sur 0 -- -- 75
2019-09-10 13:00:00 21.6 18 Sudeste 29 Sur 0 -- -- 75
2019-09-10 12:00:00 22 19 Sudeste 31 Sudeste 0 -- -- 71
2019-09-10 11:00:00 22.2 8 Oeste 24 Noroeste 0 -- -- 69
2019-09-10 10:00:00 20 12 Noroeste 24 Noroeste 0 -- -- 77
2019-09-10 09:00:00 19.1 12 Noroeste 17 Noroeste 0 -- -- 77
2019-09-10 08:00:00 16.9 9 Noroeste 15 Noroeste 0 -- -- 82
2019-09-10 07:00:00 17.2 11 Norte 19 Noroeste 0 -- -- 85
2019-09-10 06:00:00 17.3 11 Norte 18 Noroeste 0 -- -- 85
2019-09-10 05:00:00 17.2 13 Noroeste 18 Noroeste 0 -- -- 86
2019-09-10 04:00:00 17 4 Oeste 14 Norte 0 -- -- 86
2019-09-10 03:00:00 16.7 5 Norte 12 Norte 0 -- -- 89
2019-09-10 02:00:00 17.8 9 Norte 14 Norte 0 -- -- 89
2019-09-10 01:00:00 17.8 8 Norte 14 Noroeste 0 -- -- 88
2019-09-10 00:00:00 18.4 10 Noroeste 16 Noroeste 0 -- -- 88
2019-09-09 23:00:00 18.8 11 Noroeste 15 Noroeste 0 -- -- 88
2019-09-09 22:00:00 18.8 4 Noroeste 7 Oeste 0 -- -- 88
2019-09-09 21:00:00 19.2 3 Oeste 8 Sur 0 -- -- 87
2019-09-09 20:00:00 19.7 4 Sur 15 Sur 0 -- -- 85
2019-09-09 19:00:00 20.8 8 Sur 22 Sur 0 -- -- 77
2019-09-09 18:00:00 21.8 12 Sur 19 Sur 0 -- -- 74
2019-09-09 17:00:00 21.9 13 Sur 25 Sudeste 0 -- -- 74
2019-09-09 16:00:00 22.6 17 Sur 24 Sur 0 -- -- 72
2019-09-09 15:00:00 23.2 14 Sur 22 Sur 0 -- -- 69
2019-09-09 14:00:00 23.4 13 Sur 26 Sur 0 -- -- 68
2019-09-09 13:00:00 22.8 19 Sur 29 Sudeste 0 -- -- 69
2019-09-09 12:00:00 22.6 15 Sudeste 25 Sudeste 0 -- -- 70
2019-09-09 11:00:00 22.2 13 Sur 22 Sur 0 -- -- 72
2019-09-09 10:00:00 21.2 5 Sur 12 Sur 0 -- -- 74
2019-09-09 09:00:00 19.3 3 Oeste 6 Oeste 0 -- -- 82
2019-09-09 08:00:00 16.9 0 Calma 7 Nordeste 0 -- -- 87
2019-09-09 07:00:00 16.1 3 Nordeste 7 Nordeste 0 -- -- 71
2019-09-09 06:00:00 16.7 2 Este 6 Nordeste 0 -- -- 88
2019-09-09 05:00:00 16.8 6 Norte 11 Norte 0 -- -- 90
2019-09-09 04:00:00 17.4 9 Norte 13 Norte 0 -- -- 91
2019-09-09 03:00:00 17.2 3 Noroeste 8 Este 0 -- -- 87
2019-09-09 02:00:00 18.2 3 Este 14 Noroeste 0 -- -- 83
2019-09-09 01:00:00 18.6 12 Noroeste 17 Noroeste 0 -- -- 87
2019-09-09 00:00:00 18.9 6 Norte 9 Norte 0 -- -- 68
2019-09-08 23:00:00 19.1 6 Noroeste 9 Norte 0 -- -- 64
2019-09-08 22:00:00 19.3 6 Norte 13 Noroeste 0 -- -- 69
2019-09-08 21:00:00 19.9 8 Noroeste 13 Noroeste 0 -- -- 88
2019-09-08 20:00:00 20.7 8 Oeste 13 Oeste 0 -- -- 86
2019-09-08 19:00:00 20.7 6 Sudoeste 12 Sudoeste 0 -- -- 87
2019-09-08 18:00:00 20.8 9 Sur 22 Sudeste 0 -- -- 87
2019-09-08 17:00:00 20.7 14 Sudeste 26 Sur 0 -- -- 87
2019-09-08 16:00:00 21.2 18 Sudeste 26 Sudeste 0 -- -- 84
2019-09-08 15:00:00 23.3 15 Sur 25 Sur 0 -- -- 74
2019-09-08 14:00:00 24.2 13 Sur 22 Sur 0 -- -- 68
2019-09-08 13:00:00 24 11 Sur 22 Sur 0 -- -- 62
2019-09-08 12:00:00 23.7 10 Sudoeste 23 Sur 0 -- -- 63
2019-09-08 11:00:00 23.4 12 Sur 20 Sur 0 -- -- 60
2019-09-08 10:00:00 22.3 10 Sur 15 Sudoeste 0 -- -- 62
2019-09-08 09:00:00 18.6 0 Calma 12 Nordeste 0 -- -- 80
2019-09-08 08:00:00 16.6 10 Nordeste 12 Nordeste 0 -- -- 81
2019-09-08 07:00:00 17 10 Nordeste 12 Norte 0 -- -- 84
2019-09-08 06:00:00 17.3 0 Calma 10 Este 0 -- -- 85
2019-09-08 05:00:00 17.8 6 Este 10 Este 0 -- -- 85
2019-09-08 04:00:00 18 8 Nordeste 12 Nordeste 0 -- -- 84
2019-09-08 03:00:00 17.7 5 Norte 9 Nordeste 0 -- -- 85
2019-09-08 02:00:00 17.9 5 Nordeste 9 Nordeste 0 -- -- 83
2019-09-08 01:00:00 17.8 6 Nordeste 9 Norte 0 -- -- 82
2019-09-08 00:00:00 19.3 3 Sur 10 Sudeste 0 -- -- 84
2019-09-07 23:00:00 19.6 3 Sudeste 10 Sur 0 -- -- 82
2019-09-07 22:00:00 19.6 5 Sudeste 9 Sudeste 0 -- -- 81
2019-09-07 21:00:00 19.8 4 Sudoeste 14 Sur 0 -- -- 80
2019-09-07 20:00:00 20.2 8 Sur 14 Sur 0 -- -- 79
2019-09-07 19:00:00 21 9 Sudeste 17 Sudeste 0 -- -- 76
2019-09-07 18:00:00 21.5 12 Sudoeste 23 Oeste 0 -- -- 74
2019-09-07 17:00:00 23.3 11 Sur 25 Sudeste 0 -- -- 65
2019-09-07 16:00:00 22.8 11 Sur 23 Sur 0 -- -- 67
2019-09-07 15:00:00 24.1 13 Sur 23 Sur 0 -- -- 61
2019-09-07 14:00:00 23 10 Sur 20 Sur 0 -- -- 65
2019-09-07 13:00:00 22.7 9 Sudeste 19 Sudeste 0 -- -- 66
2019-09-07 12:00:00 22.1 9 Sur 22 Sur 0 -- -- 68
2019-09-07 11:00:00 21.7 10 Sudoeste 19 Sur 0 -- -- 68
2019-09-07 10:00:00 21.6 6 Sudoeste 12 Sudoeste 0 -- -- 67
2019-09-07 09:00:00 19 4 Oeste 10 Nordeste 0 -- -- 78
2019-09-07 08:00:00 16.9 6 Nordeste 12 Nordeste 0 -- -- 81
2019-09-07 07:00:00 16.4 9 Norte 11 Norte 0 -- -- 83
2019-09-07 06:00:00 17.7 5 Sudoeste 14 Sudeste 0 -- -- 79
2019-09-07 05:00:00 17.2 5 Este 13 Sudeste 0 -- -- 84
2019-09-07 04:00:00 18 8 Este 14 Este 0 -- -- 82
2019-09-07 03:00:00 17.8 6 Norte 13 Noroeste 0 -- -- 86
2019-09-07 02:00:00 18 7 Noroeste 10 Noroeste 0 -- -- 84
2019-09-07 01:00:00 18.4 4 Este 8 Este 0 -- -- 84
2019-09-07 00:00:00 18.3 3 Nordeste 9 Nordeste 0 -- -- 83
2019-09-06 23:00:00 19.2 0 Calma 7 Sur 0 -- -- 82
2019-09-06 22:00:00 19.8 4 Sur 10 Sur 0 -- -- 82
2019-09-06 21:00:00 20.3 5 Sur 23 Sudeste 0 -- -- 81
2019-09-06 20:00:00 21 15 Sudeste 22 Sudeste 0 -- -- 77
2019-09-06 19:00:00 22.5 13 Sudeste 22 Sur 0 -- -- 70
2019-09-06 18:00:00 24.3 12 Sur 25 Oeste 0 -- -- 64
2019-09-06 17:00:00 23 15 Oeste 30 Oeste 0 -- -- 70
2019-09-06 16:00:00 24 19 Oeste 36 Oeste 0 -- -- 67
2019-09-06 15:00:00 25.3 20 Oeste 30 Oeste 0 -- -- 62
2019-09-06 14:00:00 25.6 19 Oeste 31 Oeste 0 -- -- 60
2019-09-06 13:00:00 25.2 21 Oeste 32 Oeste 0 -- -- 61
2019-09-06 12:00:00 25.1 16 Oeste 30 Oeste 0 -- -- 60
2019-09-06 11:00:00 24 15 Oeste 26 Oeste 0 -- -- 61
2019-09-06 10:00:00 22.8 12 Oeste 18 Oeste 0 -- -- 64
2019-09-06 09:00:00 20.9 10 Noroeste 15 Oeste 0 -- -- 67
2019-09-06 08:00:00 18.3 10 Norte 15 Norte 0 -- -- 67
2019-09-06 07:00:00 18.2 11 Norte 18 Norte 0 -- -- 70
2019-09-06 06:00:00 17.8 10 Norte 17 Norte 0 -- -- 73
2019-09-06 05:00:00 17.1 11 Norte 14 Norte 0 -- -- 81
2019-09-06 04:00:00 17.2 10 Norte 13 Norte 0 -- -- 77
2019-09-06 03:00:00 17.5 10 Nordeste 13 Norte 0 -- -- 76
2019-09-06 02:00:00 18.5 9 Norte 23 Norte 0 -- -- 75
2019-09-06 01:00:00 19.2 10 Norte 35 Noroeste 0 -- -- 77
2019-09-06 00:00:00 19.4 13 Noroeste 36 Noroeste 0 -- -- 78
2019-09-05 23:00:00 19.8 3 Sudeste 12 Sur 0 -- -- 79
2019-09-05 22:00:00 20.3 6 Sur 12 Sudeste 0 -- -- 78
2019-09-05 21:00:00 20.7 7 Sur 12 Sur 0 -- -- 75
2019-09-05 20:00:00 21.2 7 Sudeste 16 Sur 0 -- -- 72
2019-09-05 19:00:00 21.7 10 Sudoeste 23 Sur 0 -- -- 71
2019-09-05 18:00:00 22 11 Sudoeste 24 Sudoeste 0 -- -- 71
2019-09-05 17:00:00 22.5 13 Sudoeste 30 Oeste 0 -- -- 66
2019-09-05 16:00:00 23.4 21 Oeste 36 Sudoeste 0 -- -- 63
2019-09-05 15:00:00 24.4 25 Oeste 35 Oeste 0 -- -- 60
2019-09-05 14:00:00 24.9 22 Oeste 36 Oeste 0 -- -- 60
2019-09-05 13:00:00 25.4 17 Oeste 27 Oeste 0 -- -- 56
2019-09-05 12:00:00 24.4 10 Sudoeste 28 Sudoeste 0 -- -- 57
2019-09-05 11:00:00 23.1 9 Sudoeste 16 Oeste 0 -- -- 57
2019-09-05 10:00:00 21.8 6 Sudoeste 14 Sur 0 -- -- 59
2019-09-05 09:00:00 20.6 4 Sudoeste 10 Nordeste 0 -- -- 65
2019-09-05 08:00:00 17.7 6 Nordeste 13 Este 0 -- -- 74
2019-09-05 07:00:00 17.2 5 Nordeste 10 Nordeste 0 -- -- 74
2019-09-05 06:00:00 17.5 7 Este 10 Este 0 -- -- 74
2019-09-05 05:00:00 16.7 5 Nordeste 9 Nordeste 0 -- -- 73
2019-09-05 04:00:00 17.2 6 Nordeste 12 Nordeste 0 -- -- 73
2019-09-05 03:00:00 17.2 5 Norte 12 Norte 0 -- -- 74
2019-09-05 02:00:00 18 9 Norte 12 Norte 0 -- -- 74
2019-09-05 01:00:00 17.8 4 Norte 10 Norte 0 -- -- 76
2019-09-05 00:00:00 18.3 3 Noroeste 8 Nordeste 0 -- -- 77
2019-09-04 23:00:00 18.9 8 Nordeste 13 Nordeste 0 -- -- 77
2019-09-04 22:00:00 19.5 7 Noroeste 14 Noroeste 0 -- -- 75
2019-09-04 21:00:00 20.2 10 Noroeste 14 Oeste 0 -- -- 72
2019-09-04 20:00:00 20.8 12 Noroeste 23 Noroeste 0 -- -- 70
2019-09-04 19:00:00 22 16 Noroeste 29 Noroeste 0 -- -- 68
2019-09-04 18:00:00 23.8 16 Noroeste 32 Noroeste 0 -- -- 60
2019-09-04 17:00:00 24.9 18 Oeste 28 Oeste 0 -- -- 53
2019-09-04 16:00:00 24.2 13 Sudoeste 27 Sudoeste 0 -- -- 54
2019-09-04 15:00:00 23.6 14 Sur 26 Sur 0 -- -- 55
2019-09-04 14:00:00 24.7 18 Sudoeste 31 Sudoeste 0 -- -- 54
2019-09-04 13:00:00 25.5 15 Oeste 27 Oeste 0 -- -- 49
2019-09-04 12:00:00 24.6 11 Oeste 23 Oeste 0 -- -- 50
2019-09-04 11:00:00 23.3 7 Sudoeste 15 Oeste 0 -- -- 55
2019-09-04 10:00:00 21.6 10 Oeste 17 Sudoeste 0 -- -- 61
2019-09-04 09:00:00 20 8 Oeste 14 Norte 0 -- -- 64
2019-09-04 08:00:00 17.7 10 Norte 19 Noroeste 0 -- -- 68
2019-09-04 07:00:00 17.7 12 Norte 17 Noroeste 0 -- -- 67
2019-09-04 06:00:00 17.5 7 Norte 17 Noroeste 0 -- -- 66
2019-09-04 05:00:00 17.2 10 Norte 13 Norte 0 -- -- 69
2019-09-04 04:00:00 16.7 9 Norte 12 Nordeste 0 -- -- 69
2019-09-04 03:00:00 17.4 6 Norte 11 Norte 0 -- -- 73
2019-09-04 02:00:00 18.2 6 Noroeste 18 Norte 0 -- -- 70
2019-09-04 01:00:00 18.3 11 Norte 16 Noroeste 0 -- -- 74
2019-09-04 00:00:00 17.8 4 Norte 11 Norte 0 -- -- 75
2019-09-03 23:00:00 18.5 3 Noroeste 8 Nordeste 0 -- -- 75
2019-09-03 22:00:00 19.3 6 Este 10 Este 0 -- -- 74
2019-09-03 21:00:00 20.1 3 Noroeste 16 Oeste 0 -- -- 70
2019-09-03 20:00:00 21.1 7 Noroeste 16 Oeste 0 -- -- 69
2019-09-03 19:00:00 22.5 9 Oeste 14 Oeste 0 -- -- 64
2019-09-03 18:00:00 22 9 Sur 24 Sur 0 -- -- 66
2019-09-03 17:00:00 22.1 13 Sur 22 Sur 0 -- -- 68
2019-09-03 16:00:00 22.2 7 Sur 23 Sur 0 -- -- 66
2019-09-03 15:00:00 21.6 9 Sur 20 Sur 0 -- -- 69
2019-09-03 14:00:00 21 8 Sur 21 Sur 0 -- -- 73
2019-09-03 13:00:00 21.4 13 Sur 23 Sur 0 -- -- 73
2019-09-03 12:00:00 22.7 11 Sur 21 Sur 0 -- -- 66
2019-09-03 11:00:00 21.9 9 Sur 18 Sur 0 -- -- 65
2019-09-03 10:00:00 21.2 8 Sudoeste 13 Oeste 0 -- -- 64
2019-09-03 09:00:00 19.1 7 Noroeste 12 Noroeste 0 -- -- 76
2019-09-03 08:00:00 16.3 9 Nordeste 14 Norte 0 -- -- 80
2019-09-03 07:00:00 17.1 9 Norte 17 Norte 0 -- -- 83
2019-09-03 06:00:00 17.5 12 Norte 21 Noroeste 0 -- -- 80
2019-09-03 05:00:00 17.5 8 Noroeste 14 Norte 0 -- -- 72
2019-09-03 04:00:00 17.6 9 Norte 14 Norte 0 -- -- 72
2019-09-03 03:00:00 17.5 5 Noroeste 17 Norte 0 -- -- 76
2019-09-03 02:00:00 18.3 12 Norte 15 Norte 0 -- -- 71
2019-09-03 01:00:00 17.4 6 Norte 10 Nordeste 0 -- -- 72
2019-09-03 00:00:00 18.4 7 Nordeste 10 Nordeste 0 -- -- 69
2019-09-02 23:00:00 18.5 4 Nordeste 11 Noroeste 0 -- -- 70
2019-09-02 22:00:00 18.6 4 Nordeste 14 Norte 0 -- -- 69
2019-09-02 21:00:00 19.5 11 Norte 26 Noroeste 0 -- -- 70
2019-09-02 20:00:00 20 16 Noroeste 26 Noroeste 0 -- -- 73
2019-09-02 19:00:00 21.6 10 Oeste 25 Sur 0 -- -- 64
2019-09-02 18:00:00 21.6 14 Sudeste 26 Sudeste 0 -- -- 65
2019-09-02 17:00:00 21.2 15 Sur 28 Sur 0 -- -- 66
2019-09-02 16:00:00 22.7 19 Sudeste 30 Sur 0 -- -- 61
2019-09-02 15:00:00 22.6 17 Sudeste 31 Sur 0 -- -- 61
2019-09-02 14:00:00 22.7 20 Sudeste 32 Sudeste 0 -- -- 59
2019-09-02 13:00:00 22.2 15 Sudeste 28 Sudeste 0 -- -- 62
2019-09-02 12:00:00 21.6 18 Sur 29 Sur 0 -- -- 65
2019-09-02 11:00:00 21.2 8 Sudoeste 30 Sudoeste 0 -- -- 69
2019-09-02 10:00:00 21.2 10 Sur 22 Sudoeste 0 -- -- 66
2019-09-02 09:00:00 19 4 Norte 22 Noroeste 0 -- -- 74
2019-09-02 08:00:00 17.4 17 Noroeste 24 Noroeste 0 -- -- 83
2019-09-02 07:00:00 17.5 12 Norte 23 Noroeste 0 -- -- 76
2019-09-02 06:00:00 17.3 10 Norte 24 Norte 0 -- -- 79
2019-09-02 05:00:00 17.6 15 Noroeste 25 Noroeste 0 -- -- 76
2019-09-02 04:00:00 17.8 19 Noroeste 25 Noroeste 0 -- -- 79
2019-09-02 03:00:00 17.9 12 Norte 17 Noroeste 0 -- -- 76
2019-09-02 02:00:00 18.4 10 Norte 20 Noroeste 0 -- -- 74
2019-09-02 01:00:00 18.7 14 Norte 20 Noroeste 0 -- -- 73
2019-09-02 00:00:00 18.8 11 Noroeste 17 Noroeste 0 -- -- 73
2019-09-01 23:00:00 18.5 7 Norte 14 Norte 0 -- -- 76
2019-09-01 22:00:00 19.2 10 Norte 15 Norte 0 -- -- 80
2019-09-01 21:00:00 19.7 3 Nordeste 16 Noroeste 0 -- -- 76
2019-09-01 20:00:00 20.1 9 Noroeste 15 Oeste 0 -- -- 78
2019-09-01 19:00:00 20.7 8 Sur 25 Sur 0 -- -- 74
2019-09-01 18:00:00 21.7 15 Sur 30 Sur 0 -- -- 70
2019-09-01 17:00:00 22.4 18 Sur 32 Sudeste 0 -- -- 67
2019-09-01 16:00:00 23 17 Sur 29 Sur 0 -- -- 64
2019-09-01 15:00:00 23.2 15 Sur 31 Sur 0 -- -- 64
2019-09-01 14:00:00 23.3 12 Sudoeste 33 Sur 0 -- -- 63
2019-09-01 13:00:00 22.8 17 Sur 32 Sur 0 -- -- 68
2019-09-01 12:00:00 24.4 14 Oeste 31 Noroeste 0 -- -- 55
2019-09-01 11:00:00 23.1 20 Noroeste 31 Noroeste 0 -- -- 61
2019-09-01 10:00:00 21.9 15 Noroeste 23 Noroeste 0 -- -- 62
2019-09-01 09:00:00 20.3 13 Noroeste 29 Noroeste 0 -- -- 68
2019-09-01 08:00:00 18.6 22 Noroeste 32 Noroeste 0 -- -- 77
2019-09-01 07:00:00 18.7 12 Noroeste 24 Noroeste 0 -- -- 71
2019-09-01 06:00:00 18.9 13 Noroeste 32 Noroeste 0 -- -- 74
2019-09-01 05:00:00 19.1 19 Noroeste 29 Noroeste 0 -- -- 71
2019-09-01 04:00:00 19.1 10 Norte 15 Norte 0 -- -- 62
2019-09-01 03:00:00 18.6 9 Norte 27 Noroeste 0 -- -- 73
2019-09-01 02:00:00 19.4 12 Noroeste 26 Noroeste 0 -- -- 69
2019-09-01 01:00:00 19.4 20 Noroeste 31 Noroeste 0 -- -- 75
2019-09-01 00:00:00 20.2 10 Noroeste 16 Noroeste 0 -- -- 65
2019-08-31 23:00:00 20 12 Noroeste 16 Noroeste 0 -- -- 75
2019-08-31 22:00:00 20.1 10 Noroeste 18 Noroeste 0 -- -- 80
2019-08-31 21:00:00 20 14 Noroeste 19 Noroeste 0 -- -- 83
2019-08-31 20:00:00 21.1 7 Oeste 13 Oeste 0 -- -- 78
2019-08-31 19:00:00 21.2 6 Sudoeste 18 Sudeste 0 -- -- 78
2019-08-31 18:00:00 21.6 14 Sur 24 Sudeste 0 -- -- 76
2019-08-31 17:00:00 22.1 14 Sudeste 24 Sudeste 0 -- -- 73
2019-08-31 16:00:00 21.5 15 Sudeste 24 Sudeste 0 -- -- 75
2019-08-31 15:00:00 22.3 18 Sudeste 31 Sudeste 0 -- -- 72
2019-08-31 14:00:00 22.6 20 Sudeste 28 Sur 0 -- -- 73
2019-08-31 13:00:00 23.3 15 Sur 27 Sudeste 0 -- -- 69
2019-08-31 12:00:00 23.7 16 Sudeste 25 Sur 0 -- -- 67
2019-08-31 11:00:00 22.5 9 Sudoeste 16 Sudoeste 0 -- -- 70
2019-08-31 10:00:00 21.4 13 Noroeste 22 Noroeste 0 -- -- 71
2019-08-31 09:00:00 20.1 15 Noroeste 22 Noroeste 0 -- -- 78
2019-08-31 08:00:00 18.1 13 Norte 15 Norte 0 -- -- 82
2019-08-31 07:00:00 18.1 10 Norte 17 Noroeste 0 -- -- 83
2019-08-31 06:00:00 18.3 6 Noroeste 17 Noroeste 0 -- -- 87
2019-08-31 05:00:00 18.5 11 Noroeste 21 Norte 0 -- -- 87
2019-08-31 04:00:00 18.8 12 Noroeste 23 Noroeste 0 -- -- 87
2019-08-31 03:00:00 18.9 16 Noroeste 22 Noroeste 0 -- -- 87
2019-08-31 02:00:00 19.2 5 Noroeste 10 Noroeste 0 -- -- 85
2019-08-31 01:00:00 19.6 7 Noroeste 16 Noroeste 0 -- -- 85
2019-08-31 00:00:00 19.5 10 Noroeste 19 Noroeste 0 -- -- 85
2019-08-30 23:00:00 20.2 11 Noroeste 15 Noroeste 0 -- -- 83
2019-08-30 22:00:00 20.2 10 Noroeste 17 Noroeste 0 -- -- 84
2019-08-30 21:00:00 20.5 7 Noroeste 11 Noroeste 0 -- -- 82
2019-08-30 20:00:00 21.3 5 Sur 9 Sur 0 -- -- 79
2019-08-30 19:00:00 21.9 5 Sudoeste 15 Sur 0 -- -- 77
2019-08-30 18:00:00 23 3 Sudoeste 15 Sur 0 -- -- 73
2019-08-30 17:00:00 25 9 Sur 16 Sur 0 -- -- 66
2019-08-30 16:00:00 25.6 8 Sur 20 Oeste 0 -- -- 65
2019-08-30 15:00:00 25.5 13 Sudoeste 23 Oeste 0 -- -- 64
2019-08-30 14:00:00 24.7 8 Sur 17 Sur 0 -- -- 67
2019-08-30 13:00:00 24.5 11 Sur 16 Sur 0 -- -- 66
2019-08-30 12:00:00 23.2 11 Sur 20 Sudeste 0 -- -- 72
2019-08-30 11:00:00 22.6 13 Sudeste 18 Sudeste 0 -- -- 73
2019-08-30 10:00:00 19.9 5 Sur 12 Sur 0 -- -- 85
2019-08-30 09:00:00 18.6 5 Noroeste 26 Noroeste 0 -- -- 90
2019-08-30 08:00:00 18.3 13 Noroeste 20 Noroeste 0 -- -- 91
2019-08-30 07:00:00 18.1 13 Noroeste 21 Noroeste 0 -- -- 90
2019-08-30 06:00:00 17.9 15 Noroeste 24 Noroeste 0 -- -- 92
2019-08-30 05:00:00 17.2 6 Noroeste 9 Sudeste 0 -- -- 92
2019-08-30 04:00:00 18.1 4 Este 18 Noroeste 0 -- -- 88
2019-08-30 03:00:00 18.5 12 Noroeste 20 Noroeste 0 -- -- 90
2019-08-30 02:00:00 18.8 14 Noroeste 24 Noroeste 0 -- -- 89
2019-08-30 01:00:00 18.9 10 Noroeste 17 Noroeste 0 -- -- 89
2019-08-30 00:00:00 19 12 Noroeste 19 Noroeste 0 -- -- 89
2019-08-29 23:00:00 19.3 10 Noroeste 17 Noroeste 0 -- -- 88
2019-08-29 22:00:00 19.9 9 Noroeste 14 Noroeste 0 -- -- 85
2019-08-29 21:00:00 20.2 8 Noroeste 22 Noroeste 0 -- -- 85
2019-08-29 20:00:00 21.2 9 Noroeste 13 Oeste 0 -- -- 80
2019-08-29 19:00:00 21.7 5 Sur 19 Sur 0 -- -- 79
2019-08-29 18:00:00 22.5 12 Sur 22 Sur 0 -- -- 75
2019-08-29 17:00:00 23 14 Sudeste 25 Sur 0 -- -- 72
2019-08-29 16:00:00 23.1 12 Sur 24 Sur 0 -- -- 72
2019-08-29 15:00:00 24.3 11 Sur 19 Sur 0 -- -- 67
2019-08-29 14:00:00 23.3 13 Sur 21 Sur 0 -- -- 71
2019-08-29 13:00:00 24.2 10 Sur 19 Sudoeste 0 -- -- 66
2019-08-29 12:00:00 24.7 6 Sur 16 Sudoeste 0 -- -- 65
2019-08-29 11:00:00 26.1 10 Sur 17 Norte 0 -- -- 57
2019-08-29 10:00:00 21.6 5 Sudoeste 9 Sur 0 -- -- 72
2019-08-29 09:00:00 19.4 5 Sudeste 13 Norte 0 -- -- 79
2019-08-29 08:00:00 16.9 9 Norte 12 Norte 0 -- -- 87
2019-08-29 07:00:00 17.6 5 Sudeste 14 Norte 0 -- -- 81
2019-08-29 06:00:00 17 5 Norte 12 Noroeste 0 -- -- 85
2019-08-29 05:00:00 17.8 10 Norte 17 Norte 0 -- -- 86
2019-08-29 04:00:00 17.8 11 Norte 15 Norte 0 -- -- 85
2019-08-29 03:00:00 18.3 13 Norte 21 Norte 0 -- -- 83
2019-08-29 02:00:00 18.5 10 Noroeste 15 Noroeste 0 -- -- 81
2019-08-29 01:00:00 18.9 10 Norte 23 Noroeste 0 -- -- 81
2019-08-29 00:00:00 19.3 17 Noroeste 25 Noroeste 0 -- -- 79
2019-08-28 23:00:00 19.6 14 Noroeste 20 Norte 0 -- -- 76
2019-08-28 22:00:00 19.9 12 Noroeste 15 Noroeste 0 -- -- 78
2019-08-28 21:00:00 21 3 Sudeste 13 Noroeste 0 -- -- 76
2019-08-28 20:00:00 21.4 7 Noroeste 11 Noroeste 0 -- -- 77
2019-08-28 19:00:00 22.4 6 Sudoeste 14 Sur 0 -- -- 73
2019-08-28 18:00:00 22.7 8 Sudeste 22 Sur 0 -- -- 72
2019-08-28 17:00:00 22.5 14 Sur 22 Sur 0 -- -- 74
2019-08-28 16:00:00 22.9 14 Sur 24 Sur 0 -- -- 70
2019-08-28 15:00:00 22.1 15 Sur 25 Sur 0 -- -- 74
2019-08-28 14:00:00 21.5 13 Sudeste 27 Sudeste 0 -- -- 77
2019-08-28 13:00:00 20.3 17 Sudeste 28 Sur 0 -- -- 81
2019-08-28 12:00:00 20.7 18 Sudeste 27 Sur 0 -- -- 79
2019-08-28 11:00:00 21.5 15 Sudeste 26 Sudeste 0 -- -- 74
2019-08-28 10:00:00 20.3 9 Sur 17 Sur 0 -- -- 78
2019-08-28 09:00:00 19.5 5 Oeste 10 Nordeste 0 -- -- 80
2019-08-28 08:00:00 17.3 6 Este 17 Noroeste 0 -- -- 87
2019-08-28 07:00:00 17.5 13 Noroeste 19 Noroeste 0 -- -- 86
2019-08-28 06:00:00 16.7 2 Norte 15 Noroeste 0 -- -- 87
2019-08-28 05:00:00 17.8 10 Norte 18 Noroeste 0 -- -- 90
2019-08-28 04:00:00 18.1 13 Noroeste 18 Noroeste 0 -- -- 91
2019-08-28 03:00:00 17.6 4 Norte 18 Noroeste 0 -- -- 85
2019-08-28 02:00:00 18.4 12 Noroeste 18 Noroeste 0 -- -- 90
2019-08-28 01:00:00 18.5 9 Noroeste 15 Noroeste 0 -- -- 90
2019-08-28 00:00:00 18.6 10 Noroeste 14 Noroeste 0 -- -- 90
2019-08-27 23:00:00 19.1 6 Oeste 14 Noroeste 0 -- -- 89
2019-08-27 22:00:00 19.2 2 Sudoeste 6 Sudoeste 0 -- -- 88
2019-08-27 21:00:00 19.7 4 Sur 9 Sudeste 0 -- -- 86
2019-08-27 20:00:00 20 6 Sur 20 Sur 0 -- -- 86
2019-08-27 19:00:00 20.5 13 Sudeste 22 Sudeste 0 -- -- 80
2019-08-27 18:00:00 20.8 13 Sudeste 28 Sudeste 0 -- -- 81
2019-08-27 17:00:00 20.5 18 Sudeste 28 Sur 0 -- -- 82
2019-08-27 16:00:00 22.8 19 Sudeste 30 Sudeste 0 -- -- 68
2019-08-27 15:00:00 22.9 15 Sudeste 26 Sur 0 -- -- 71
2019-08-27 14:00:00 22.3 17 Sudeste 29 Sur 0 -- -- 73
2019-08-27 13:00:00 23.1 15 Sudeste 27 Sur 0 -- -- 71
2019-08-27 12:00:00 22.7 15 Sur 27 Sur 0 -- -- 71
2019-08-27 11:00:00 20.6 15 Sudeste 23 Sudeste 0 -- -- 79
2019-08-27 10:00:00 20.4 9 Oeste 18 Noroeste 0 -- -- 81
2019-08-27 09:00:00 18.8 4 Noroeste 12 Noroeste 0 -- -- 88
2019-08-27 08:00:00 17.9 9 Noroeste 15 Noroeste 0 -- -- 90
2019-08-27 07:00:00 17.2 3 Noroeste 5 Noroeste 0 -- -- 90
2019-08-27 06:00:00 17.8 3 Sudeste 20 Noroeste 0 -- -- 86
2019-08-27 05:00:00 18.3 13 Noroeste 17 Noroeste 0 -- -- 89
2019-08-27 04:00:00 18.4 10 Noroeste 16 Oeste 0 -- -- 90
2019-08-27 03:00:00 18.6 6 Noroeste 10 Noroeste 0 -- -- 90
2019-08-27 02:00:00 18.7 2 Sur 9 Sur 0 -- -- 89
2019-08-27 01:00:00 19 2 Sudeste 12 Sudeste 0 -- -- 87
2019-08-27 00:00:00 19.3 6 Sur 10 Sudeste 0 -- -- 88
2019-08-26 23:00:00 19.6 3 Sudoeste 14 Sur 0 -- -- 87
2019-08-26 22:00:00 19.5 8 Sur 17 Sur 0 -- -- 89
2019-08-26 21:00:00 19.8 5 Sur 13 Sur 0 -- -- 87
2019-08-26 20:00:00 20 9 Sur 19 Sur 0 -- -- 86
2019-08-26 19:00:00 20.8 10 Sur 24 Sur 0 -- -- 83
2019-08-26 18:00:00 22.1 14 Sudeste 30 Sudeste 0 -- -- 75
2019-08-26 17:00:00 22.7 16 Sudeste 27 Sudoeste 0 -- -- 75
2019-08-26 16:00:00 22.5 15 Sur 27 Sudeste 0 -- -- 75
2019-08-26 15:00:00 22.5 14 Sudeste 23 Sur 0 -- -- 77
2019-08-26 14:00:00 21.8 15 Sudeste 30 Sudeste 0 -- -- 80
2019-08-26 13:00:00 22 17 Sudeste 30 Sur 0 -- -- 78
2019-08-26 12:00:00 22 8 Sudeste 15 Sur 0 -- -- 81
2019-08-26 11:00:00 19.9 13 Sudeste 21 Sudeste 0 -- -- 91
2019-08-26 10:00:00 21.7 3 Sudoeste 10 Noroeste 0 -- -- 79
2019-08-26 09:00:00 22 6 Oeste 16 Nordeste 0 -- -- 76
2019-08-26 08:00:00 24.7 15 Nordeste 24 Nordeste 0 -- -- 26
2019-08-26 07:00:00 21.5 2 Noroeste 21 Sur 0 -- -- 79
2019-08-26 06:00:00 24.5 7 Este 24 Nordeste 0 -- -- 46
2019-08-26 05:00:00 25.5 10 Nordeste 26 Sudeste 0 -- -- 33
2019-08-26 04:00:00 23.3 12 Este 23 Sudeste 0 -- -- 50
2019-08-26 03:00:00 23.5 10 Este 18 Sudeste 0 -- -- 47
2019-08-26 02:00:00 21.2 5 Noroeste 10 Norte 0 -- -- 72
2019-08-26 01:00:00 24.2 7 Norte 18 Este 0 -- -- 43
2019-08-26 00:00:00 22.6 5 Este 17 Norte 0 -- -- 61
2019-08-25 23:00:00 23.3 3 Este 12 Nordeste 0 -- -- 50
2019-08-25 22:00:00 21.9 4 Nordeste 10 Nordeste 0 -- -- 75
2019-08-25 21:00:00 21.5 4 Sudoeste 12 Sur 0 -- -- 81
2019-08-25 20:00:00 24.3 4 Sudeste 19 Sur 0 -- -- 66
2019-08-25 19:00:00 23.1 9 Sur 18 Sudeste 0 -- -- 74
2019-08-25 18:00:00 25.1 8 Sudoeste 21 Oeste 0 -- -- 65
2019-08-25 17:00:00 27 10 Sudoeste 19 Sudoeste 0 -- -- 59
2019-08-25 16:00:00 30.5 7 Sur 19 Sur 0 -- -- 34
2019-08-25 15:00:00 28.7 11 Sur 24 Sudeste 0 -- -- 38
2019-08-25 14:00:00 29.1 13 Sur 25 Sur 0 -- -- 37
2019-08-25 13:00:00 29.7 11 Oeste 23 Oeste 0 -- -- 39
2019-08-25 12:00:00 30.9 11 Sur 19 Sur 0 -- -- 37
2019-08-25 11:00:00 30.7 8 Sur 13 Sur 0 -- -- 39
2019-08-25 10:00:00 27.6 5 Oeste 11 Oeste 0 -- -- 35
2019-08-25 09:00:00 25.1 5 Sur 15 Norte 0 -- -- 44
2019-08-25 08:00:00 23.2 5 Norte 12 Nordeste 0 -- -- 48
2019-08-25 07:00:00 27.2 6 Sudeste 21 Nordeste 0 -- -- 37
2019-08-25 06:00:00 27.3 12 Norte 17 Nordeste 0 -- -- 18
2019-08-25 05:00:00 27.3 7 Este 28 Este 0 -- -- 23
2019-08-25 04:00:00 29.9 18 Sudeste 28 Este 0 -- -- 13
2019-08-25 03:00:00 26.9 14 Nordeste 24 Nordeste 0 -- -- 24
2019-08-25 02:00:00 26.4 5 Nordeste 13 Oeste 0 -- -- 29
2019-08-25 01:00:00 26.1 5 Noroeste 17 Sur 0 -- -- 36
2019-08-25 00:00:00 28.4 4 Sudeste 12 Nordeste 0 -- -- 29
2019-08-24 23:00:00 27.8 4 Noroeste 13 Norte 0 -- -- 28
2019-08-24 22:00:00 30.4 2 Sur 10 Oeste 0 -- -- 21
2019-08-24 21:00:00 30 5 Norte 9 Norte 0 -- -- 24
2019-08-24 20:00:00 31 5 Sudeste 10 Oeste 0 -- -- 36
2019-08-24 19:00:00 32.9 4 Sur 9 Sudoeste 0 -- -- 26
2019-08-24 18:00:00 31.1 4 Sudoeste 17 Sur 0 -- -- 39
2019-08-24 17:00:00 31.7 5 Sur 14 Sur 0 -- -- 39
2019-08-24 16:00:00 31.1 7 Sudoeste 15 Oeste 0 -- -- 42
2019-08-24 15:00:00 30.3 7 Noroeste 13 Sudoeste 0 -- -- 46
2019-08-24 14:00:00 26.7 6 Oeste 15 Sudoeste 0 -- -- 63
2019-08-24 13:00:00 29.5 10 Oeste 15 Oeste 0 -- -- 53
2019-08-24 12:00:00 31.1 2 Sudoeste 17 Sur 0 -- -- 25
2019-08-24 11:00:00 30.8 7 Nordeste 19 Sur 0 -- -- 22
2019-08-24 10:00:00 33.2 8 Este 22 Nordeste 0 -- -- 17
2019-08-24 09:00:00 30.8 12 Nordeste 18 Norte 0 -- -- 20
2019-08-24 08:00:00 28.6 8 Noroeste 17 Sur 0 -- -- 22
2019-08-24 07:00:00 28.3 8 Sudeste 16 Sudeste 0 -- -- 24
2019-08-24 06:00:00 27.5 9 Este 32 Nordeste 0 -- -- 29
2019-08-24 05:00:00 24.6 6 Norte 10 Norte 0 -- -- 30
2019-08-24 04:00:00 25.3 3 Este 13 Norte 0 -- -- 30
2019-08-24 03:00:00 25.2 5 Noroeste 11 Norte 0 -- -- 29
2019-08-24 02:00:00 26.8 3 Nordeste 12 Norte 0 -- -- 25
2019-08-24 01:00:00 28.2 8 Norte 15 Norte 0 -- -- 22
2019-08-24 00:00:00 27.5 7 Noroeste 12 Noroeste 0 -- -- 27
2019-08-23 23:00:00 26.4 5 Norte 10 Nordeste 0 -- -- 38
2019-08-23 22:00:00 26.9 6 Este 11 Nordeste 0 -- -- 49
2019-08-23 21:00:00 27.1 2 Nordeste 12 Noroeste 0 -- -- 46
2019-08-23 20:00:00 29.4 3 Oeste 9 Oeste 0 -- -- 50
2019-08-23 19:00:00 31.2 3 Norte 12 Sudoeste 0 -- -- 44
2019-08-23 18:00:00 31.2 4 Sur 16 Oeste 0 -- -- 46
2019-08-23 17:00:00 29.6 14 Oeste 21 Oeste 0 -- -- 49
2019-08-23 16:00:00 32 9 Sudoeste 16 Oeste 0 -- -- 42
2019-08-23 15:00:00 33.3 9 Sudoeste 17 Sudoeste 0 -- -- 39
2019-08-23 14:00:00 34.4 10 Sur 20 Sur 0 -- -- 27
2019-08-23 13:00:00 32.4 4 Sur 20 Sur 0 -- -- 28
2019-08-23 12:00:00 32.5 10 Sudoeste 16 Sur 0 -- -- 30
2019-08-23 11:00:00 32.2 7 Sur 15 Sur 0 -- -- 26
2019-08-23 10:00:00 29.7 3 Sudoeste 22 Nordeste 0 -- -- 38
2019-08-23 09:00:00 28.8 13 Nordeste 17 Nordeste 0 -- -- 25
2019-08-23 08:00:00 22.5 4 Nordeste 20 Noroeste 0 -- -- 34
2019-08-23 07:00:00 23.9 7 Noroeste 10 Oeste 0 -- -- 40
2019-08-23 06:00:00 23 5 Norte 11 Norte 0 -- -- 32
2019-08-23 05:00:00 23.2 3 Norte 20 Norte 0 -- -- 36
2019-08-23 04:00:00 20.2 13 Noroeste 20 Noroeste 0 -- -- 67
2019-08-23 03:00:00 23.1 6 Noroeste 15 Norte 0 -- -- 43
2019-08-23 02:00:00 23.9 8 Noroeste 11 Noroeste 0 -- -- 31
2019-08-23 01:00:00 23.3 3 Este 14 Norte 0 -- -- 36
2019-08-23 00:00:00 22.6 6 Norte 21 Noroeste 0 -- -- 41